Location: Peterborough
(44.3091°N, 78.3197°W)
Time: 20:00:39
(UTC-04:00)

Altair - Pass Details

Date: 23 March 2023
Orbit: 1501 x 1682 km, 47.2° (Epoch: 04 June)

Event Time Altitude Azimuth Distance (km) Brightness Sun altitude
Rises 04:43:03 0° 173° (S) 4,748 9.9 -26.1°
Reaches altitude 10° 04:48:24 10° 149° (SSE) 3,729 9.5 -25.3°
Maximum altitude 04:52:19 13° 124° (ESE) 3,444 9.6 -24.7°
Drops below altitude 10° 04:56:12 10° 98° (E) 3,687 10.2 -24.1°
Sets 05:01:22 0° 74° (ENE) 4,651 11.4 -23.3°
